[[{"header":{"parameterUnit":"m.s-1","parameterCategory":1,"la1":30.2991,"la2":30.254,"lo1":-89.0895,"lo2":-89.0444,"dy":0.0017,"dx":0.0017,"nx":28,"ny":28,"refTime":"2025-05-17T21:00:00:Z","depth":0,"parameterNumber":2,"parameterNumberName":"U-component_of_WINDS"},"data":[0,0,0,0,0,0,0,0,0,0,0,0,0,0,0,0,0,0,0,0,0,0,0,0,0,0,0,0,0,0,0,0,0,0,0,0,0,0,0,0,0,0,0,0,0,0,0,0,0,0,0,0,0,0,0,0,0,0,0.8601,0.8602,0,0.8695,0.8697,0.8698,0.8705,0.8704,0.8703,0.8702,0.8801,0.8805,0.8808,0,0,0,0,0,0,0,0,0,0,0,0,0,0.8427,0.843,0.8601,0.8602,0.8603,0.8695,0.8697,0.8698,0.8705,0.8704,0.8703,0.8702,0.88,0.8804,0.8809,0,0,0,0,0,0,0,0,0,0,0,0,0,0.851,0.8431,0.86,0.8618,0.862,0.8695,0.8697,0.8698,0.8706,0.8704,0.8702,0.8701,0.8799,0.8804,0.8809,0.8874,0,0,0.8826,0.8828,0,0,0,0,0,0,0,0,0.8505,0.8517,0.8614,0.8617,0.862,0.8687,0.8672,0.8757,0.8706,0.8673,0.8702,0.87,0.8764,0.8773,0.8794,0.8878,0.8883,0.8826,0.8829,0.8832,0.8833,0,0,0,0,0,0,0,0.85,0.8512,0.8638,0.8615,0.8619,0.8621,0.8631,0.8688,0.8727,0.8676,0.8677,0.8688,0.8766,0.8789,0.8796,0.8884,0.8826,0.8831,0.8834,0.8836,0.9025,0.9027,0,0,0,0,0,0,0.849,0.8508,0.8635,0.8641,0.8557,0.8625,0.8637,0.8667,0.8726,0.8733,0.8689,0.8688,0.878,0.879,0.88,0.8878,0.8832,0.8837,0.884,0.9023,0.9026,0.9028,0,0,0,0,0,0,0.8487,0.8502,0.8631,0.8575,0.8591,0.863,0.8664,0.867,0.8692,0.8736,0.8743,0.8705,0.8779,0.8792,0.8855,0.8882,0.8839,0.8844,0.9021,0.9024,0.9027,0.9037,0,0,0,0,0,0,0.8482,0.85,0.8525,0.8575,0.8594,0.8685,0.8666,0.8673,0.8702,0.8701,0.8753,0.876,0.8779,0.8847,0.886,0.8889,0.8848,0.9019,0.9023,0.9026,0.9034,0.9039,0.9044,0,0,0,0,0,0.8475,0.8525,0.8526,0.8542,0.8626,0.8686,0.8697,0.8718,0.8704,0.8729,0.8757,0.8758,0.8877,0.8853,0.8868,0.8899,0.9018,0.9022,0.9025,0.9032,0.9038,0.9044,0,0,0,0,0,0,0.8478,0.8532,0.8534,0.8601,0.8639,0.8687,0.872,0.8724,0.8767,0.8765,0.8789,0.8801,0.8862,0.8887,0.886,0.8964,0.8946,0.8953,0.8945,0.8952,0.8957,0.8949,0.8853,0,0,0,0,0,0.8486,0.853,0.8575,0.863,0.8649,0.8681,0.8708,0.872,0.8761,0.8777,0.8809,0.8849,0.8895,0.8925,0.897,0.9038,0.9049,0.9066,0.9071,0.9075,0.9081,0.9118,0.9126,0.9041,0.9041,0.9041,0,0,0.8504,0.8539,0.8565,0.8631,0.8662,0.8707,0.8694,0.8743,0.8777,0.8785,0.8845,0.887,0.8916,0.8981,0.9012,0.9004,0.9107,0.908,0.9083,0.9087,0.9123,0.9131,0.9138,0.9043,0.9043,0.9042,0,0,0.8559,0.859,0.8639,0.867,0.8716,0.8737,0.8748,0.8796,0.8813,0.8874,0.888,0.8921,0.9,0.9032,0.9059,0.9125,0.9128,0.9139,0.9164,0.92,0.9206,0.9213,0.9235,0.9243,0.9145,0.9145,0.9145,0,0.8576,0.8643,0.8663,0.8711,0.874,0.8748,0.8797,0.8826,0.8885,0.8905,0.8895,0.8994,0.9025,0.9098,0.9113,0.9135,0.9149,0.9133,0.9204,0.921,0.9216,0.9238,0.9247,0.9146,0.9145,0.9145,0.9145,0,0.8661,0.8708,0.8741,0.8797,0.8829,0.8878,0.8905,0.8936,0.8945,0.8967,0.9028,0.9066,0.9118,0.9137,0.9147,0.921,0.9204,0.9199,0.9181,0.9225,0.9246,0.9254,0.9147,0.9147,0.9146,0.9146,0,0,0.8721,0.8786,0.8798,0.8822,0.8874,0.891,0.8959,0.9009,0.9034,0.9075,0.9116,0.9182,0.9177,0.9207,0.9221,0.9252,0.9301,0.9243,0.9245,0.9252,0.9372,0.9375,0.9385,0.9303,0.9305,0.9306,0.9368,0,0.8781,0.8867,0.8886,0.896,0.9003,0.9011,0.9053,0.9089,0.9111,0.9151,0.9175,0.9221,0.9212,0.923,0.9261,0.9288,0.9325,0.9284,0.9342,0.9343,0.9329,0.9396,0.94,0.9457,0.9377,0.9378,0.9379,0,0.8863,0.8904,0.8982,0.9026,0.9045,0.9083,0.913,0.9168,0.9209,0.9222,0.9255,0.9265,0.9316,0.9296,0.9366,0.9337,0.9362,0.9379,0.9381,0.9387,0.9364,0.9403,0.9475,0.9483,0.9393,0.9391,0.939,0,0.8898,0.8973,0.9029,0.905,0.9103,0.9129,0.9153,0.9192,0.9221,0.9262,0.928,0.9327,0.9353,0.9389,0.9412,0.9395,0.948,0.9461,0.9492,0.9492,0.951,0.9508,0.9586,0.9526,0.9526,0.9526,0.9526,0,0.8963,0.901,0.9045,0.9079,0.9132,0.9154,0.9206,0.9229,0.9264,0.9303,0.9313,0.935,0.9378,0.9418,0.9436,0.9491,0.9503,0.9515,0.9519,0.9514,0.9512,0.953,0.9526,0.9528,0.9528,0.9527,0.9527,0,0.9011,0.9036,0.9097,0.9142,0.9155,0.9192,0.9231,0.9264,0.9286,0.9335,0.9348,0.9382,0.943,0.9456,0.9517,0.9529,0.959,0.9592,0.9576,0.9577,0.9606,0.9603,0.9698,0.9711,0.9643,0.9644,0.9644,0,0.905,0.9087,0.9135,0.9162,0.9185,0.9228,0.9257,0.928,0.9309,0.9358,0.9386,0.9434,0.9474,0.955,0.9581,0.9627,0.963,0.966,0.9637,0.963,0.963,0.9627,0.963,0.9664,0.9665,0.9665,0.9666,0,0.9118,0.9128,0.9169,0.9214,0.9247,0.9284,0.932,0.9342,0.937,0.9403,0.9451,0.9482,0.9543,0.9591,0.964,0.9664,0.967,0.9673,0.9682,0.9677,0.9665,0.9671,0.9586,0.967,0.967,0.9669,0.9669,0.9669,0.9162,0.9194,0.9233,0.9278,0.9307,0.9341,0.9374,0.9399,0.944,0.9491,0.9502,0.9553,0.9593,0.9658,0.9684,0.9724,0.9718,0.9732,0.9736,0.9739,0.9739,0.9659,0.9733,0.9733,0.9733,0.9733,0.9733,0,0.9229,0.9254,0.9295,0.9345,0.938,0.9381,0.9421,0.9451,0.9495,0.9531,0.957,0.9626,0.9672,0.9705,0.9752,0.9778,0.9782,0.979,0.9788,0.9793,0.9742,0.9729,0.9786,0.9786,0.9786,0.9786,0.9786,0.9786,0.9268,0.9322,0.9337,0.9405,0.943,0.948,0.9503,0.9533,0.9562,0.9623,0.9661,0.9683,0.9718,0.9767,0.9809,0.9818,0.9835,0.9842,0.9851,0.9803,0.9797,0.9792,0.9779,0.9846,0.9846,0.9899,0.9899,0.99]},{"header":{"parameterUnit":"m.s-1","parameterCategory":1,"la1":30.2991,"la2":30.254,"lo1":-89.0895,"lo2":-89.0444,"dy":0.0017,"dx":0.0017,"nx":28,"ny":28,"refTime":"2025-05-17T21:00:00:Z","depth":0,"parameterNumber":3,"parameterNumberName":"V-component_of_WINDS"},"data":[0,0,0,0,0,0,0,0,0,0,0,0,0,0,0,0,0,0,0,0,0,0,0,0,0,0,0,0,0,0,0,0,0,0,0,0,0,0,0,0,0,0,0,0,0,0,0,0,0,0,0,0,0,0,0,0,0,0,5.1066,5.1066,0,5.1066,5.1066,5.1066,5.0982,5.098,5.0978,5.0976,5.0974,5.0976,5.0978,0,0,0,0,0,0,0,0,0,0,0,0,0,5.0994,5.0996,5.1066,5.1066,5.1066,5.1066,5.1066,5.1066,5.0983,5.098,5.0977,5.0975,5.0974,5.0976,5.0978,0,0,0,0,0,0,0,0,0,0,0,0,0,5.1013,5.0996,5.1066,5.1025,5.1021,5.1066,5.1066,5.1066,5.0983,5.098,5.0977,5.0974,5.0973,5.0976,5.0979,5.1063,0,0,5.0988,5.0989,0,0,0,0,0,0,0,0,5.1012,5.1015,5.1031,5.1028,5.1024,5.1021,5.104,5.1065,5.0984,5.0998,5.0976,5.0972,5.0992,5.0993,5.1,5.1063,5.1062,5.0988,5.099,5.0991,5.0992,0,0,0,0,0,0,0,5.1011,5.1015,5.1066,5.1031,5.1027,5.1006,5.1005,5.1044,5.1013,5.0996,5.099,5.0991,5.099,5.0998,5.1,5.1062,5.0988,5.0991,5.0992,5.0994,5.1193,5.1196,0,0,0,0,0,0,5.1015,5.1014,5.1066,5.1066,5.101,5.101,5.1009,5.1025,5.1013,5.1008,5.0994,5.0987,5.0994,5.0996,5.0999,5.1096,5.0991,5.0994,5.0996,5.1189,5.1194,5.1197,0,0,0,0,0,0,5.1014,5.1021,5.1066,5.1039,5.1043,5.1014,5.1033,5.1027,5.1035,5.1011,5.1005,5.1008,5.0992,5.0995,5.1047,5.1095,5.0995,5.0998,5.1185,5.1191,5.1195,5.1292,0,0,0,0,0,0,5.1012,5.1021,5.1052,5.104,5.1045,5.1115,5.1036,5.1029,5.104,5.1032,5.1023,5.1018,5.099,5.1044,5.1051,5.1098,5.1,5.1181,5.1188,5.1194,5.1284,5.1299,5.1313,0,0,0,0,0,5.101,5.1079,5.1055,5.1061,5.1084,5.1118,5.112,5.1086,5.1045,5.1076,5.1061,5.1018,5.1089,5.105,5.1057,5.1105,5.1178,5.1186,5.1193,5.1278,5.1296,5.1312,0,0,0,0,0,0,5.1098,5.1077,5.1049,5.1117,5.112,5.1103,5.1142,5.1107,5.1122,5.1113,5.107,5.1069,5.1128,5.1122,5.1078,5.1186,5.1126,5.1136,5.1187,5.1205,5.1219,5.1219,5.1003,0,0,0,0,0,5.1125,5.1155,5.1135,5.1196,5.1199,5.1171,5.1184,5.1158,5.1159,5.116,5.1148,5.1151,5.1173,5.1189,5.1208,5.1283,5.128,5.132,5.1334,5.1346,5.1355,5.1394,5.1411,5.1223,5.1223,5.1223,0,0,5.1182,5.1174,5.1195,5.1214,5.1213,5.1244,5.1172,5.1208,5.1231,5.1165,5.1213,5.1205,5.1205,5.1269,5.1296,5.1266,5.1406,5.1356,5.1366,5.1368,5.1403,5.1421,5.1437,5.1229,5.1228,5.1227,0,0,5.13,5.1298,5.1349,5.1349,5.1349,5.133,5.1342,5.1332,5.1324,5.1372,5.1323,5.1349,5.1389,5.1391,5.1397,5.1517,5.1479,5.1525,5.16,5.1638,5.1653,5.1665,5.1708,5.1723,5.1534,5.1534,5.1534,0,5.137,5.1416,5.1379,5.1418,5.1428,5.137,5.1421,5.1423,5.143,5.1437,5.1403,5.1452,5.1448,5.1511,5.1541,5.1548,5.156,5.1525,5.1653,5.1666,5.1677,5.1717,5.1733,5.154,5.1539,5.1538,5.1538,0,5.1501,5.1534,5.1575,5.1583,5.1597,5.1642,5.1611,5.163,5.1603,5.1587,5.1637,5.163,5.1647,5.166,5.1634,5.172,5.1701,5.1661,5.16,5.1702,5.1738,5.1753,5.1548,5.1546,5.1544,5.1543,0,0,5.1675,5.1662,5.1678,5.168,5.1676,5.17,5.1743,5.176,5.1776,5.1783,5.1817,5.1852,5.1815,5.1822,5.1796,5.183,5.1924,5.1785,5.1784,5.1811,5.2018,5.2048,5.2066,5.1899,5.1902,5.1904,5.2018,0,5.1789,5.1861,5.1829,5.1904,5.1933,5.1879,5.1916,5.1917,5.1904,5.1926,5.1911,5.1937,5.1886,5.189,5.1921,5.1906,5.1965,5.1898,5.193,5.1931,5.1931,5.2085,5.2117,5.2224,5.2032,5.2035,5.2036,0,5.1932,5.1945,5.2023,5.2013,5.2024,5.2058,5.2071,5.2093,5.2093,5.2081,5.209,5.2056,5.2096,5.2036,5.2091,5.2046,5.2057,5.2052,5.2055,5.2056,5.199,5.209,5.2258,5.2274,5.2059,5.2057,5.2055,0,5.205,5.2086,5.2137,5.2142,5.2132,5.2157,5.2154,5.2151,5.2164,5.2175,5.2182,5.2199,5.2207,5.2221,5.2192,5.2151,5.225,5.2188,5.2241,5.2242,5.2264,5.2263,5.2435,5.2273,5.2272,5.2272,5.2272,0,5.218,5.223,5.219,5.2222,5.2275,5.2239,5.2293,5.2284,5.2282,5.2311,5.2265,5.2293,5.2253,5.2277,5.2255,5.2304,5.2308,5.2299,5.2292,5.2303,5.2304,5.2309,5.23,5.2276,5.2275,5.2275,5.2274,0,5.232,5.2296,5.2348,5.2335,5.2333,5.2373,5.2362,5.239,5.2374,5.2411,5.2417,5.2392,5.2417,5.239,5.2414,5.2398,5.2464,5.2447,5.2464,5.2459,5.2513,5.2508,5.2695,5.2717,5.2541,5.2543,5.2544,0,5.2405,5.2442,5.2433,5.2449,5.2449,5.2475,5.2488,5.2453,5.2468,5.2471,5.2499,5.2521,5.2537,5.258,5.2564,5.2582,5.2564,5.2628,5.2566,5.2576,5.2564,5.2562,5.2565,5.2641,5.2643,5.2644,5.2646,0,5.2557,5.2543,5.2563,5.2579,5.2596,5.2606,5.2614,5.2629,5.2594,5.2613,5.2638,5.2651,5.2675,5.2697,5.271,5.2707,5.2671,5.2666,5.2679,5.2689,5.2697,5.2693,5.2498,5.2661,5.266,5.2658,5.2658,5.2657,5.2671,5.2701,5.27,5.2724,5.2726,5.2734,5.276,5.2747,5.2768,5.2786,5.2764,5.2796,5.2795,5.2809,5.281,5.2834,5.2807,5.2826,5.2831,5.2836,5.2844,5.2695,5.2837,5.2836,5.2836,5.2835,5.2835,0,5.2821,5.2817,5.284,5.2851,5.287,5.2835,5.2841,5.2859,5.2888,5.2891,5.2907,5.2937,5.2958,5.2944,5.2962,5.2984,5.2968,5.299,5.2988,5.2987,5.2867,5.2854,5.3003,5.3003,5.3003,5.3003,5.3003,5.3003,5.29,5.295,5.2936,5.2986,5.2982,5.3013,5.3019,5.3026,5.3028,5.3064,5.3082,5.3072,5.3068,5.3085,5.3103,5.3099,5.3107,5.3135,5.3124,5.3012,5.2996,5.298,5.2967,5.3138,5.3138,5.3242,5.3243,5.3244]}]]